TimeMDT,TemperatureF,Dew PointF,Humidity,Sea Level PressureIn,VisibilityMPH,Wind Direction,Wind SpeedMPH,Gust SpeedMPH,PrecipitationIn,Events,Conditions,WindDirDegrees,DateUTC
12:53 AM,26.1,21.9,84,30.50,10.0,West,6.9,-,N/A,,Clear,260,2011-11-03 06:53:00
1:53 AM,25.0,21.9,88,30.50,10.0,WSW,8.1,-,N/A,,Clear,240,2011-11-03 07:53:00
2:53 AM,21.9,19.0,89,30.48,10.0,SSW,8.1,-,N/A,,Clear,200,2011-11-03 08:53:00
3:53 AM,19.0,17.1,92,30.46,10.0,SW,6.9,-,N/A,,Clear,220,2011-11-03 09:53:00
4:53 AM,23.0,19.9,88,30.44,10.0,WSW,5.8,-,N/A,,Clear,240,2011-11-03 10:53:00
5:53 AM,23.0,21.0,92,30.43,10.0,WSW,4.6,-,N/A,,Clear,240,2011-11-03 11:53:00
6:53 AM,19.0,16.0,88,30.45,10.0,SSW,5.8,-,N/A,,Clear,200,2011-11-03 12:53:00
7:53 AM,21.9,19.0,89,30.46,10.0,WSW,3.5,-,N/A,,Clear,250,2011-11-03 13:53:00
8:53 AM,27.0,24.1,89,30.44,10.0,WNW,3.5,-,N/A,,Clear,290,2011-11-03 14:53:00
9:53 AM,30.9,27.0,85,30.41,10.0,Calm,Calm,-,N/A,,Clear,0,2011-11-03 15:53:00
10:53 AM,36.0,28.0,73,30.38,10.0,WSW,8.1,-,N/A,,Clear,250,2011-11-03 16:53:00
11:53 AM,41.0,28.0,60,30.34,10.0,Calm,Calm,-,N/A,,Clear,0,2011-11-03 17:53:00
12:53 PM,46.0,27.0,47,30.28,10.0,SSE,11.5,-,N/A,,Clear,160,2011-11-03 18:53:00
1:53 PM,48.9,28.0,44,30.22,10.0,SE,11.5,-,N/A,,Clear,140,2011-11-03 19:53:00
2:53 PM,51.1,27.0,39,30.19,10.0,SE,15.0,-,N/A,,Clear,130,2011-11-03 20:53:00
3:53 PM,52.0,26.1,37,30.16,10.0,SE,15.0,-,N/A,,Clear,130,2011-11-03 21:53:00
5:53 PM,46.0,30.0,54,30.12,10.0,ESE,11.5,20.7,N/A,,Clear,110,2011-11-03 23:53:00
6:53 PM,39.9,30.0,68,30.14,10.0,East,9.2,-,N/A,,Clear,90,2011-11-04 00:53:00
7:53 PM,36.0,30.0,79,30.13,10.0,East,6.9,-,N/A,,Clear,90,2011-11-04 01:53:00
8:53 PM,34.0,28.0,79,30.11,10.0,East,5.8,-,N/A,,Clear,90,2011-11-04 02:53:00
9:53 PM,41.0,26.1,55,30.06,10.0,SSE,17.3,25.3,N/A,,Clear,160,2011-11-04 03:53:00
11:53 PM,36.0,25.0,64,30.01,10.0,SE,4.6,-,N/A,,Clear,130,2011-11-04 05:53:00